Probability
0 0 0 0 0 0 0 0 0 0 0 0 0 0 0 0 0 0 0 0 0 0 0 0 0 0 0 0 0 0 0 0 0 0 0 0 0 0 0 0 0 0 0 0
0 0 0 0 0 0 0 0 0 0 0 0 0 0 0 0 0 0 0 0 0 0 0 0 0 0 0 0 0 0 0 0 0 0 0 0 0 0 0 0 0 0 0 0
0 0 0 0 0 0 0 0 0 0 0 0 0 0 0 0 0 0 0 0 0 0 0 0 0 0 0 0 0 0 0 0 0 0 0 0 0 0 0 0 0 0 0 0
0 0 0 0 0 0 0 0 0 0 0 0 0 0 0 0 0 0 0 0 0 0 0 0 0 0 0 0 0 0 0 0 0 0 0 0 0 0 0 0 0 0 0 0
0 0 0 0 0 0 0 0 0 0 0 0 0 0 0 0 0 0 0 0 0 0 0 0 0 0 0 0 0 0 0 0 0 0 0 0 0 0 0 0 0 0 0 0
0 0 0 0 0 0 0 0 0 0 0 0 0 0 0 0 0 0 0 0 0 0 0 0 0 0 0 0 0 0 0 0 0 0 0 0 0 0 0 0 0 0 0 0
0 0 0 0 0 0 0 0 0 0 0 0 0 0 0 0 0 0 0 0 0 0 0 0 0 0 0 0 0 0 0 0 0 0 0 0 0 0 0 0 0 0 0 0
0 0 0 0 0 0 0 0 0 0 0 0 0 0 0 0 0 0 0 0 0 0 0 0 0 0 0 0 0 0 0 0 0 0 0 0 0 0 0 0 0 0 0 0
0 0 0 0 0 0 0 0 0 0 0 0 0 0 0 0 0 0 0 0 0 0 0 0 0 0 0 0 0 0 0 0 0 0 0 0 0 0 0 0 0 0 0 0
0 0 0 0 0 0 0 0 0 0 0 0 0 0 0 0 0 0 0 0 0 0 0 0 0 0 0 0 0 0 0 0 0 0 0 0 0 0 0 0 0 0 0 0
0 0 0 0 0 0 0 0 0 0 0 0 0 0 0 0 0 0 0 0 0 0 0 0 0 0 0 0 0 0 0 0 0 0 0 0 0 0 0 0 0 0 0 0
0 0 0 0 0 0 0 0 0 0 0 0 0 0 0 0 0 0 0 0 0 0 0 0 0 0 0 0 0 0 0 0 0 0 0 0 0 0 0 0 0 0 0 0
0 0 0 0 0 0 0 0 0 0 0 0 0 0 0 0 0 0 0 0 0 0 0 0 0 0 0 0 0 0 0 0 0 0 0 0 0 0 0 0 0 0 0 0
0 0 0 0 0 0 0 0 0 0 0 0 0 0 0 0 0 0 0 0 0 0 0 0 0 0 0 0 0 0 0 0 0 0 0 0 0 0 0 0 0 0 0 0
0 0 0 0 0 0 0 0 0 0 0 0 0 0 0 0 0 0 0 0 0 0 0 0 0 0 0 0 0 0 0 0 0 0 0 0 0 0 0 0 0 0 0 0
0 0 0 0 0 0 0 0 0 0 0 0 0 0 0 0 0 0 0 0 0 0 0 0 0 0 0 0 0 0 0 0 0 0 0 0 0 0 0 0 0 0 0 0
0 0 0 0 0 0 0 0 0 0 0 0 0 0 0 0 0 0 0 0 0 0 0 0 0 0 0 0 0 0 0 0 0 0 0 0 0 0 0 0 0 0 0 0
0 0 0 0 0 0 0 0 0 0 0 0 0 0 0 0 0 0 0 0 0 0 0 0 0 0 0 0 0 0 0 0 0 0 0 0 0 0 0 0 0 0 0 0
0 0 0 0 0 0 0 0 0 0 0 0 0 0 0 0 0 0 0 0 0 0 0 0 0 0 0 0 0 0 0 0 0 0 0 0 0 0 0 0 0 0 0 0
0 0 0 0 0 0 0 0 0 0 0 0 0 0 0 0 0 0 0 0 0 0 0 0 0 0 0 0 0 0 0 0 0 0 0 0 0 0 0 0 0 0 0 0
0 0 0 0 0 0 0 0 0 0 0 0 0 0 0 0 0 0 0 0 0 0 0 0 0 0 0 0 0 0 0 0 0 0 0 0 0 0 0 0 0 0 0 0
0 0 0 0 0 0 0 0 0 0 0 0 0 0 0 0 0 0 0 0 0 0 0 0 0 0 0 0 0 0 0 0 0 0 0 0 0 0 0 0 0 0 0 0
0 0 0 0 0 0 0 0 0 0 0 0 0 0 0 0 0 0 0 0 0 0 0 0 0 0 0 0 0 0 0 0 0 0 0 0 0 0 0 0 0 0 0 0
0 0 0 0 0 0 0 0 0 0 0 0 0 0 0 0 0 0 0 0 0 0 0 0 0 0 0 0 0 0 0 0 0 0 0 0 0 0 0 0 0 0 0 0
0 0 0 0 0 0 0 0 0 0 0 0 0 0 0 0 0 0 0 0 0 0 0 0 0 0 0 0 0 0 0 0 0 0 0 0 0 0 0 0 0 0 0 0
0 0 0 0 0 0 0 0 0 0 0 0 0 0 0 0 0 0 0 0 0 0 0 0 0 0 0 0 0 0 0 0 0 0 0 0 0 0 0 0 0 0 0 0
Height
5631 5637 5643 5651 5657 5663 5668 5674 5681 5688 5693 5697 5703 5711 5717 5722 5728 5734 5740 5745 5750 5755 5758 5762 5765 5769 5772 5776 5778 5781 5784 5786 5788 5789 5791 5792 5794 5795 5796 5798 5799 5800 5801 5801
5624 5630 5638 5642 5647 5652 5658 5664 5671 5678 5683 5688 5694 5701 5708 5713 5720 5726 5732 5737 5742 5747 5750 5754 5758 5761 5765 5768 5771 5774 5776 5778 5780 5782 5784 5785 5786 5788 5789 5790 5791 5792 5793 5794
5617 5625 5629 5633 5638 5644 5649 5657 5664 5669 5674 5678 5684 5691 5698 5705 5711 5717 5723 5729 5734 5739 5743 5747 5750 5754 5757 5761 5764 5766 5768 5770 5772 5774 5776 5777 5779 5780 5782 5783 5784 5785 5785 5786
5609 5616 5621 5625 5631 5636 5642 5650 5655 5660 5665 5670 5676 5681 5691 5697 5703 5709 5716 5721 5726 5731 5735 5739 5742 5746 5749 5753 5756 5758 5760 5762 5764 5766 5768 5769 5771 5772 5774 5775 5775 5776 5777 5777
5604 5609 5613 5618 5625 5630 5635 5641 5647 5652 5656 5661 5667 5672 5682 5688 5695 5702 5708 5713 5718 5723 5727 5731 5734 5738 5741 5744 5747 5750 5752 5754 5756 5758 5760 5761 5763 5764 5765 5766 5767 5767 5768 5768
5597 5602 5606 5611 5617 5622 5627 5634 5638 5643 5647 5652 5660 5664 5673 5681 5689 5695 5700 5705 5710 5714 5718 5722 5726 5729 5732 5735 5738 5741 5744 5746 5748 5749 5751 5752 5754 5755 5756 5757 5758 5758 5759 5759
5591 5595 5599 5604 5609 5614 5620 5626 5631 5634 5638 5644 5653 5656 5665 5675 5682 5687 5692 5696 5700 5705 5709 5713 5717 5721 5724 5727 5730 5732 5735 5737 5739 5740 5742 5743 5745 5746 5747 5748 5748 5749 5749 5749
5585 5590 5594 5599 5604 5609 5614 5620 5625 5630 5634 5640 5644 5649 5659 5667 5673 5678 5683 5687 5691 5696 5700 5704 5708 5712 5715 5718 5720 5723 5725 5727 5729 5731 5732 5734 5735 5736 5737 5738 5738 5739 5739 5740
5579 5584 5589 5594 5598 5603 5607 5612 5619 5623 5627 5631 5636 5643 5652 5658 5664 5669 5674 5679 5683 5687 5691 5695 5699 5703 5706 5708 5711 5713 5715 5718 5719 5721 5723 5724 5725 5726 5727 5728 5728 5729 5729 5729
5574 5578 5583 5588 5592 5596 5602 5607 5611 5615 5619 5623 5629 5636 5644 5650 5655 5660 5665 5670 5674 5678 5682 5686 5690 5693 5696 5698 5701 5703 5705 5707 5709 5711 5712 5714 5715 5716 5716 5717 5718 5718 5719 5719
5569 5573 5577 5581 5585 5591 5596 5600 5604 5608 5612 5617 5621 5631 5637 5642 5646 5651 5655 5660 5664 5669 5673 5676 5680 5683 5686 5688 5691 5693 5695 5696 5698 5700 5702 5703 5704 5705 5706 5706 5707 5707 5708 5707
5564 5568 5571 5576 5580 5584 5589 5594 5599 5603 5606 5610 5615 5625 5628 5633 5637 5641 5646 5650 5655 5659 5663 5666 5670 5673 5675 5678 5680 5682 5684 5686 5688 5689 5691 5692 5693 5694 5695 5695 5696 5696 5696 5696
5559 5562 5566 5569 5576 5579 5582 5587 5591 5595 5599 5603 5608 5618 5621 5624 5628 5632 5637 5641 5645 5649 5653 5656 5659 5662 5665 5668 5670 5672 5674 5675 5677 5678 5680 5681 5682 5683 5684 5684 5684 5685 5685 5685
5554 5557 5561 5565 5568 5572 5576 5581 5584 5588 5591 5596 5602 5609 5614 5616 5619 5624 5628 5631 5635 5639 5643 5646 5649 5652 5655 5657 5660 5662 5663 5665 5666 5667 5669 5670 5671 5672 5672 5673 5673 5674 5674 5673
5548 5551 5554 5558 5562 5565 5569 5574 5578 5581 5585 5590 5595 5600 5606 5608 5611 5615 5618 5622 5626 5629 5633 5636 5639 5642 5644 5647 5649 5651 5652 5654 5655 5657 5658 5659 5660 5660 5661 5662 5662 5662 5662 5662
5542 5545 5548 5552 5555 5558 5562 5567 5571 5574 5578 5582 5587 5592 5597 5599 5603 5606 5610 5613 5617 5620 5623 5627 5629 5632 5634 5637 5639 5640 5642 5643 5644 5646 5647 5648 5649 5649 5650 5650 5651 5651 5651 5651
5537 5540 5542 5545 5548 5551 5556 5561 5564 5568 5571 5575 5579 5585 5588 5591 5594 5598 5601 5604 5608 5611 5614 5617 5620 5622 5624 5626 5628 5630 5631 5632 5633 5635 5636 5637 5637 5638 5639 5639 5639 5639 5639 5639
5531 5533 5535 5538 5542 5545 5552 5554 5557 5560 5564 5567 5571 5575 5579 5582 5586 5589 5592 5595 5599 5602 5605 5608 5610 5613 5615 5616 5618 5619 5621 5621 5622 5623 5624 5625 5626 5627 5627 5627 5628 5628 5627 5627
5526 5527 5529 5532 5534 5538 5544 5547 5550 5553 5557 5560 5563 5566 5570 5573 5577 5580 5583 5586 5589 5592 5595 5598 5600 5602 5604 5606 5608 5609 5610 5611 5612 5613 5613 5614 5615 5615 5616 5616 5616 5616 5615 5615
5520 5522 5524 5525 5528 5531 5537 5540 5542 5546 5549 5552 5554 5557 5561 5564 5568 5572 5574 5577 5580 5582 5585 5588 5590 5592 5594 5596 5597 5598 5600 5601 5602 5602 5603 5603 5604 5604 5604 5604 5604 5604 5603 5602
5514 5515 5517 5519 5521 5524 5530 5532 5535 5539 5542 5544 5546 5549 5552 5555 5559 5562 5564 5567 5570 5573 5575 5577 5580 5582 5584 5585 5587 5588 5589 5590 5591 5592 5592 5592 5592 5592 5592 5592 5592 5592 5591 5590
5508 5510 5512 5513 5515 5521 5522 5525 5528 5530 5532 5535 5537 5540 5543 5546 5549 5552 5555 5557 5560 5563 5565 5567 5570 5572 5573 5575 5576 5578 5579 5580 5580 5581 5581 5581 5581 5580 5580 5580 5580 5579 5579 5578
5503 5505 5506 5508 5511 5513 5515 5517 5519 5521 5524 5526 5529 5532 5534 5537 5540 5543 5546 5548 5550 5553 5555 5557 5559 5561 5563 5564 5566 5567 5568 5568 5569 5569 5569 5569 5568 5568 5568 5568 5568 5567 5566 5566
5497 5498 5499 5501 5503 5505 5507 5509 5511 5513 5515 5518 5520 5523 5526 5529 5531 5534 5537 5539 5541 5543 5545 5547 5549 5551 5552 5553 5554 5556 5557 5557 5558 5558 5557 5557 5556 5556 5555 5555 5554 5554 5554 5553
5491 5491 5492 5494 5497 5498 5500 5501 5503 5506 5508 5510 5512 5515 5517 5520 5523 5525 5527 5530 5532 5533 5535 5537 5539 5540 5541 5543 5544 5544 5545 5546 5546 5546 5546 5545 5544 5544 5543 5543 5542 5542 5542 5541
5485 5486 5487 5488 5490 5492 5493 5495 5496 5498 5500 5502 5504 5507 5509 5511 5514 5516 5518 5520 5522 5524 5526 5527 5529 5530 5531 5532 5533 5534 5534 5534 5535 5535 5534 5534 5533 5532 5532 5531 5531 5530 5530 5529
Wind_Speed
39 42 44 44 44 43 44 45 45 45 46 48 48 46 45 46 45 44 43 41 40 39 37 37 37 36 36 35 34 34 33 33 33 32 32 32 32 32 32 32 32 32 31 32
39 40 39 41 43 44 45 45 45 45 46 48 48 47 46 46 45 44 43 42 41 40 39 39 38 37 36 36 35 34 34 34 34 34 33 33 33 34 34 33 33 33 33 33
38 37 38 40 43 45 45 45 43 44 46 47 48 48 46 45 45 44 43 42 41 40 40 39 39 38 37 36 36 35 35 35 35 34 34 34 34 35 35 35 35 35 35 35
37 37 38 40 41 43 45 45 43 43 44 46 48 49 47 45 45 44 44 43 42 41 40 39 39 39 38 37 36 36 36 36 36 35 35 35 36 36 36 36 36 37 37 37
35 36 37 39 39 40 42 43 43 43 43 45 47 49 47 46 45 43 43 43 42 41 40 39 39 39 39 39 38 37 37 37 37 37 37 37 37 37 37 37 37 38 38 39
33 34 36 37 38 39 40 41 42 43 44 47 47 49 48 46 44 42 42 42 42 42 41 41 40 40 40 40 40 39 39 39 38 39 39 38 38 39 39 39 39 39 40 40
32 34 34 36 37 39 39 40 42 44 46 46 45 48 47 43 43 42 42 42 42 42 42 42 41 40 40 41 41 41 40 40 40 40 40 40 40 40 40 40 40 40 41 41
32 33 34 34 36 38 38 39 41 43 44 44 44 46 46 43 42 42 42 42 43 43 43 42 42 41 41 41 42 42 42 41 41 41 41 41 41 42 42 42 41 42 42 42
31 32 33 35 35 37 37 38 40 41 41 42 44 44 44 42 42 42 42 42 42 42 43 43 42 41 41 41 42 43 43 43 43 43 43 42 43 43 43 43 43 43 43 43
30 31 33 35 36 36 36 38 39 40 40 42 43 43 42 41 40 40 41 41 41 41 42 43 43 42 42 42 42 42 43 43 43 44 44 43 43 43 43 43 44 44 44 45
28 30 31 35 36 35 36 38 40 40 41 40 42 42 41 40 40 40 40 41 41 41 42 42 42 43 43 43 43 43 44 44 44 45 45 45 45 45 45 45 45 45 46 46
28 29 30 32 35 35 36 37 39 40 41 41 41 40 39 39 38 39 39 40 40 41 41 42 42 43 44 43 43 44 44 45 45 46 46 46 46 46 46 46 46 46 47 47
28 29 30 31 33 35 36 37 38 39 40 42 41 39 37 37 38 38 38 38 39 39 40 41 41 42 43 43 44 44 45 45 46 47 47 46 46 46 46 46 46 46 47 47
28 29 31 32 32 33 36 37 37 38 38 40 40 38 36 35 36 37 37 38 38 39 40 40 41 42 42 43 43 44 45 46 46 47 46 46 46 46 46 46 47 47 47 47
28 30 31 31 32 33 34 36 36 37 37 38 38 38 36 35 35 35 35 36 37 38 39 40 40 40 41 42 43 44 45 45 46 46 45 45 46 46 46 46 46 46 46 47
28 29 30 31 33 34 34 35 36 36 37 37 37 37 36 36 36 35 36 36 37 38 39 39 40 40 40 41 42 43 44 44 44 45 45 46 46 46 46 46 46 46 46 46
27 29 30 32 33 34 35 34 35 36 37 37 37 36 37 37 36 37 38 38 37 38 39 39 40 40 41 41 42 42 42 43 43 44 45 45 46 46 46 46 47 46 46 46
26 27 30 32 33 35 34 34 34 36 37 38 38 37 37 37 37 37 38 39 38 38 39 40 41 41 41 41 41 42 42 42 43 44 44 45 45 45 46 46 46 47 47 48
25 25 27 30 33 34 34 33 33 34 35 37 38 38 38 39 39 39 39 40 40 39 39 40 41 41 41 41 41 41 41 42 42 43 44 44 45 45 46 46 46 46 47 48
25 25 26 27 30 33 33 33 33 34 35 35 36 36 37 39 40 39 39 40 40 40 39 40 41 41 41 41 41 41 42 42 42 42 43 43 44 45 45 46 46 46 47 47
24 25 26 26 29 31 32 33 33 34 35 35 35 36 36 37 38 38 38 39 40 40 40 40 40 40 40 41 41 41 40 41 42 42 43 44 45 45 45 46 46 47 47 47
24 25 26 26 28 28 29 30 31 32 33 34 34 35 35 36 37 37 36 36 37 38 39 39 39 40 40 40 40 40 40 41 41 42 43 44 45 45 46 46 46 46 46 46
23 24 26 27 28 28 28 29 30 31 32 33 34 34 35 35 36 36 36 35 36 37 38 39 39 40 40 40 40 40 41 41 42 42 43 44 45 46 46 45 46 46 46 46
23 24 25 26 26 27 28 30 30 31 32 33 34 34 34 34 34 35 36 36 37 37 37 37 38 39 40 40 41 41 42 42 43 43 43 43 44 45 45 45 45 45 45 45
21 23 23 25 25 25 26 27 28 29 29 30 32 33 33 33 34 35 35 36 36 36 36 36 37 38 39 40 41 41 41 41 41 42 42 42 42 43 43 43 44 44 44 44
19 20 21 23 24 25 25 26 27 28 28 29 30 32 32 33 34 35 35 35 36 36 36 36 36 36 37 38 39 40 40 40 40 40 40 41 41 41 41 41 41 41 41 41
Wind_Direction
228 227 226 228 228 229 229 230 230 230 229 230 231 230 229 230 231 231 233 234 234 235 235 236 238 239 240 241 243 245 246 249 251 252 253 254 255 255 256 258 259 260 262 265
227 227 226 228 228 228 228 228 228 229 229 230 230 229 229 230 231 231 232 234 234 234 236 237 238 240 241 242 243 245 247 249 250 251 252 254 255 255 256 257 259 261 263 265
228 227 227 228 228 228 229 228 228 229 229 231 231 229 228 230 231 232 232 233 234 235 236 237 239 240 241 243 244 246 248 249 250 251 253 254 256 257 258 260 261 263 265 266
227 226 228 228 229 229 229 227 228 229 230 231 232 232 228 229 231 232 232 233 234 235 236 237 239 240 241 243 244 246 248 250 251 253 254 255 257 258 259 261 263 264 266 267
227 227 228 228 229 230 229 227 228 229 231 233 233 234 229 229 230 231 232 233 234 235 236 238 239 240 241 242 244 246 248 250 252 254 255 257 258 258 260 262 264 266 267 268
229 228 229 229 228 228 227 226 228 230 232 235 233 236 233 230 231 232 233 235 235 236 236 238 240 241 242 243 244 246 248 251 253 255 256 258 258 259 261 263 264 266 268 269
228 227 227 226 226 225 224 225 228 230 233 236 234 236 235 232 231 232 234 235 236 236 237 238 240 242 244 245 246 247 249 251 254 256 258 259 260 261 262 263 265 266 268 269
229 227 227 226 226 224 226 227 229 232 236 238 237 237 236 234 233 233 234 235 236 237 238 239 241 243 244 246 248 249 250 252 254 256 258 260 261 262 263 264 265 266 268 269
230 230 229 227 225 225 225 226 229 234 238 240 239 238 237 236 236 235 235 236 237 238 239 240 241 243 245 247 249 250 251 253 255 257 258 260 262 263 264 265 266 267 269 270
229 230 227 226 226 227 228 228 229 231 237 240 239 239 237 237 238 238 237 238 238 239 240 242 243 245 246 248 249 250 252 253 254 256 258 260 261 262 264 265 266 268 269 270
229 230 228 226 227 228 228 229 229 232 238 240 241 239 239 240 240 240 239 239 239 240 241 243 244 246 247 249 250 252 253 254 254 256 258 259 260 262 263 264 266 268 269 270
231 230 229 229 230 229 229 230 231 234 238 240 242 240 240 242 241 241 241 240 240 241 242 243 244 246 247 248 250 252 254 255 256 257 258 259 260 262 263 264 265 267 269 270
233 232 231 230 229 229 231 230 232 235 239 241 242 241 240 244 243 242 241 241 241 241 242 243 244 246 248 249 251 252 254 255 256 258 258 259 260 261 263 264 265 266 269 271
235 233 233 233 233 232 232 232 232 234 237 239 241 240 239 242 243 243 243 242 241 241 242 243 245 247 248 249 251 253 254 255 256 258 259 259 260 261 262 263 265 267 268 271
237 237 235 234 233 233 233 233 234 235 236 238 239 239 239 241 243 242 242 241 241 242 242 243 246 247 248 250 251 253 254 255 256 258 258 259 259 261 262 263 265 267 269 271
239 241 239 237 235 234 233 233 235 236 236 238 239 239 239 241 242 242 242 242 242 242 242 243 245 247 248 250 252 253 254 255 256 257 258 258 259 261 262 263 265 266 268 270
240 241 241 239 238 237 235 234 236 236 237 238 239 240 239 241 241 242 242 242 242 243 244 245 247 248 250 251 252 254 255 256 257 257 258 259 261 262 263 264 265 267 267 269
243 245 244 242 239 240 238 237 239 240 239 240 240 240 240 242 242 243 244 244 244 245 246 248 249 250 252 252 253 255 256 256 257 258 258 260 261 262 264 265 267 268 268 270
244 244 245 244 242 240 239 239 240 241 241 240 241 242 243 243 243 244 246 248 248 249 249 250 252 252 253 253 254 255 256 257 258 258 260 261 262 263 264 266 267 269 270 271
244 244 244 244 244 242 240 241 241 242 243 242 244 244 245 244 245 245 247 248 249 250 251 252 252 253 255 255 255 256 256 257 258 260 261 262 263 264 265 266 268 269 271 272
244 245 245 244 245 243 242 243 243 244 244 243 245 245 246 245 244 245 247 248 249 250 252 252 253 253 254 255 256 257 258 259 260 262 263 264 264 265 266 268 269 270 271 272
248 247 245 246 247 245 242 244 244 245 244 244 245 245 246 246 245 246 248 249 249 249 251 251 252 253 254 255 256 258 260 261 263 264 265 265 266 267 269 270 271 271 272 272
253 251 250 249 250 249 247 247 247 248 248 247 247 246 246 246 246 246 247 249 250 251 252 252 253 255 256 256 257 259 261 264 265 266 267 267 268 269 270 272 272 272 272 273
256 255 252 250 249 248 248 249 249 250 251 250 249 249 248 247 247 246 247 248 250 252 253 253 254 255 256 258 259 261 263 265 266 267 268 269 270 271 271 272 272 272 273 273
257 255 253 249 247 247 247 248 249 249 251 250 248 248 247 247 248 249 249 250 251 252 254 256 257 258 259 259 260 262 264 266 267 268 270 271 272 272 272 272 272 272 273 275
261 257 252 250 246 246 246 247 248 247 247 248 248 247 247 248 249 249 250 251 252 253 255 257 259 260 260 261 261 263 264 266 267 269 271 272 273 273 272 271 271 271 272 273